Theta_e
298 298 298 298 298 299 299 299 300 300 300 300 299 299 300 300 300 299 299 299 298 298 298 298 297 297 297 296 296 296 295 295 295 295 294 293 293 293 293 294 295 295
297 297 297 298 298 299 299 299 299 299 299 299 299 299 300 300 300 299 299 298 298 297 298 297 297 297 296 295 295 294 293 293 293 294 293 293 293 292 292 293 293 294
295 296 296 296 296 297 297 298 298 298 298 299 299 299 299 300 300 299 298 298 297 297 297 297 296 296 295 295 294 294 293 292 292 293 292 292 292 292 292 292 292 293
294 294 294 295 295 296 296 296 297 297 298 298 298 299 299 300 299 299 298 297 297 296 296 296 295 295 295 294 294 293 293 292 292 292 292 292 292 292 291 291 292 292
294 293 293 293 294 294 295 295 295 296 296 296 297 297 297 297 297 297 296 296 295 295 295 295 295 294 294 294 293 292 292 292 292 292 291 291 291 291 291 291 290 290
293 293 293 293 293 293 292 292 293 293 294 294 295 295 296 296 295 295 295 295 295 294 294 294 294 293 293 293 292 292 292 291 291 291 290 290 290 290 290 290 290 289
292 292 292 292 292 292 291 291 292 292 293 293 294 294 294 294 294 294 294 294 294 294 293 293 293 292 292 292 292 291 291 291 291 290 289 289 290 289 290 289 289 289
290 290 291 291 291 291 290 291 291 291 291 292 292 293 293 293 293 293 293 293 293 293 293 293 292 292 292 292 291 290 290 291 290 289 289 288 289 288 289 289 289 288
289 289 289 289 289 289 289 289 290 290 291 290 291 291 292 292 292 292 292 292 292 292 292 292 292 292 292 291 290 290 289 289 290 289 288 288 287 288 288 288 288 287
287 287 287 287 287 288 288 288 289 289 289 289 290 290 290 291 291 291 291 290 290 290 291 291 291 291 291 290 290 289 289 289 288 288 288 288 287 287 287 287 287 286
286 287 287 287 287 287 286 287 288 288 288 288 288 288 289 289 290 291 290 290 289 289 289 289 290 290 289 289 289 289 289 288 288 288 287 287 287 287 287 287 286 286
286 286 287 287 287 287 287 287 287 287 287 287 287 287 288 288 289 289 289 289 289 289 289 289 289 289 289 289 289 288 288 288 288 288 287 287 287 287 287 287 286 286
286 286 286 286 287 287 288 287 287 286 286 285 286 286 286 286 287 287 288 288 288 289 289 289 289 289 289 289 289 288 288 287 287 287 287 287 286 286 286 286 286 286
287 286 287 287 286 287 286 287 287 286 286 286 286 286 286 286 286 286 287 287 287 288 288 288 288 288 288 288 288 288 287 287 287 286 286 286 286 286 286 286 286 286
287 287 287 287 286 286 285 285 285 286 286 286 286 286 287 287 287 286 286 286 286 287 287 287 287 287 288 287 287 287 288 287 287 286 286 286 286 286 286 286 286 286
287 287 286 286 285 285 285 285 285 285 285 285 286 286 286 286 286 286 286 285 285 286 286 287 287 287 287 288 289 287 286 287 287 286 286 286 285 285 286 286 286 286
286 286 286 286 286 285 285 285 285 285 285 284 285 285 286 286 286 285 285 285 285 285 285 286 286 287 288 289 289 290 288 287 286 286 286 285 285 285 285 285 285 285
285 286 286 286 285 285 285 285 284 284 284 284 284 284 284 285 285 285 285 285 285 285 285 285 285 287 288 289 289 289 289 287 286 286 285 285 285 285 285 285 285 285
285 285 285 285 285 285 285 285 284 284 284 283 283 284 284 284 284 285 284 285 285 284 284 285 285 287 288 288 288 288 288 288 287 286 285 285 285 285 285 285 285 284
285 284 284 284 285 285 285 284 284 283 283 284 284 284 283 283 283 283 284 284 284 284 284 284 284 286 287 287 288 288 288 288 286 286 286 285 285 285 285 284 285 284
284 284 284 284 284 284 284 283 283 283 283 283 283 283 282 282 283 282 282 283 283 284 284 284 284 286 287 287 287 288 288 288 286 286 286 285 285 285 285 285 284 285
283 283 283 283 283 283 283 282 282 282 282 283 283 283 283 283 283 283 282 282 282 282 282 282 283 286 286 287 287 287 288 286 285 285 285 285 285 285 285 285 285 284
283 282 282 283 283 282 282 282 281 282 282 283 282 282 282 282 282 282 282 282 282 282 281 282 282 284 286 286 286 286 286 285 285 285 285 285 285 285 285 285 285 285
282 282 281 281 281 281 281 281 281 281 281 282 281 280 280 281 281 282 282 282 281 281 281 281 281 283 284 285 285 286 285 284 284 284 283 284 285 286 286 286 285 285
280 280 279 279 279 279 279 279 280 280 281 281 281 281 280 281 281 281 281 282 282 281 282 282 281 282 284 285 285 285 284 283 283 283 282 283 284 284 285 285 285 285
277 277 276 276 276 277 278 278 279 279 280 280 280 280 280 280 280 280 280 280 280 281 280 281 280 280 282 284 284 285 285 283 283 282 281 282 283 283 283 284 285 285
Wind_Speed
9 9 9 8 8 7 8 8 7 8 8 7 7 8 7 6 6 8 8 8 9 9 10 10 10 11 10 11 12 12 12 13 12 12 13 14 14 14 14 15 13 12
11 10 9 8 8 7 8 8 8 8 8 8 7 8 8 7 6 6 7 8 9 9 9 10 10 10 10 10 10 11 12 11 13 10 12 15 14 14 16 16 15 14
11 11 10 10 9 10 9 8 8 8 8 8 9 8 7 6 6 6 6 7 8 9 9 9 9 9 9 9 10 11 12 12 13 11 12 14 13 13 14 13 13 15
10 10 10 10 10 10 9 8 8 8 8 8 8 7 7 6 5 6 5 7 7 7 7 8 8 9 9 9 9 10 12 12 12 10 12 12 12 13 13 12 13 13
10 9 9 9 9 10 10 9 9 9 9 9 8 8 8 7 5 5 6 6 7 7 7 8 8 8 8 8 9 10 10 10 11 11 12 13 13 12 12 12 14 16
10 9 9 9 9 9 9 9 9 10 10 10 9 8 7 7 7 6 7 7 6 7 8 7 7 8 8 9 9 10 10 9 10 12 13 14 12 12 11 12 14 16
11 11 12 10 11 10 9 9 8 8 8 8 9 8 7 8 7 7 8 7 7 7 7 7 8 8 8 8 9 10 10 11 10 11 13 13 12 13 12 13 14 15
9 9 9 9 10 9 10 10 10 9 9 8 8 8 8 8 9 8 7 7 7 7 7 7 8 8 8 8 9 10 11 9 9 11 12 13 12 14 13 11 13 16
5 5 6 6 7 7 9 10 10 10 10 10 9 9 8 7 8 8 8 8 8 7 7 7 8 8 8 8 9 10 11 10 10 12 13 13 14 14 14 12 14 16
3 4 6 6 8 8 10 11 10 10 10 10 10 10 10 9 8 8 8 8 8 8 8 7 7 8 8 8 9 10 11 11 10 11 13 13 13 13 13 13 14 15
8 7 7 7 7 7 9 9 9 9 9 10 10 10 10 10 10 8 8 7 7 8 8 8 8 8 8 9 9 9 10 11 11 11 12 13 13 13 13 13 14 15
9 9 8 7 6 6 7 7 7 8 8 8 8 9 10 9 10 10 8 9 8 8 8 8 8 8 8 9 9 9 10 10 10 11 11 11 12 13 13 13 14 14
7 8 9 9 9 8 6 5 6 7 8 8 8 7 8 8 9 10 9 10 10 9 9 9 8 8 8 8 9 9 9 10 10 11 11 11 11 12 13 14 14 14
6 6 6 7 7 8 9 9 8 7 6 7 8 9 8 8 8 9 9 8 9 9 9 9 8 8 8 8 8 8 8 9 10 11 11 12 12 12 12 12 13 14
7 6 5 6 6 8 8 9 10 10 9 9 7 7 7 8 8 8 8 8 8 8 8 8 8 8 7 7 7 8 8 9 10 10 11 11 12 13 13 13 13 13
8 7 6 6 6 6 7 7 8 9 9 10 11 10 9 8 8 8 8 8 8 8 7 6 6 6 8 13 12 10 9 8 8 9 10 10 11 12 13 13 13 13
8 8 8 8 8 8 8 8 8 8 8 10 10 9 9 9 8 8 9 8 8 8 8 6 5 6 10 13 15 17 13 10 11 11 10 11 12 12 12 12 11 12
8 8 9 9 9 8 9 7 7 7 8 8 9 10 10 9 9 9 9 8 7 8 7 7 7 8 13 14 15 16 15 11 10 10 10 11 11 12 12 11 12 12
9 9 9 8 8 9 8 9 9 9 9 9 10 9 9 10 11 10 9 9 8 8 8 8 7 9 13 15 15 16 17 15 9 10 10 11 12 13 13 12 11 11
11 10 11 11 9 8 8 9 10 11 10 9 9 9 9 10 10 11 11 10 9 9 9 8 9 10 14 15 15 16 17 15 9 10 10 11 13 13 12 13 13 12
12 11 12 11 12 12 11 11 11 11 11 10 10 11 11 11 11 10 10 10 10 9 9 10 9 13 14 16 16 17 17 15 9 10 10 11 12 12 13 13 13 12
13 12 12 12 12 12 12 13 13 13 13 10 9 9 9 10 10 10 10 11 11 11 10 11 10 13 14 14 15 16 18 10 8 9 10 11 12 12 12 12 12 13
14 13 12 12 11 12 13 14 14 14 13 10 11 11 11 11 11 11 11 11 12 11 12 13 11 12 15 15 15 16 12 8 8 9 10 11 12 12 11 12 13 13
12 12 13 13 13 14 14 14 13 13 13 11 12 12 13 12 12 12 12 12 12 13 12 11 12 14 17 17 18 17 13 9 8 9 10 11 11 11 10 11 13 19
13 13 13 14 16 16 16 16 15 15 14 13 13 12 13 13 13 12 12 12 11 12 15 15 13 13 16 17 19 18 13 8 8 8 10 10 10 10 10 10 11 12
12 14 15 15 17 18 17 16 16 16 15 14 14 12 13 13 13 13 14 13 12 13 13 13 14 14 15 20 19 19 19 11 7 8 10 11 10 10 10 9 10 10
Wind_Direction
349 344 335 328 322 320 314 307 302 296 289 284 279 279 270 255 227 210 208 213 215 219 219 223 218 219 218 219 216 219 218 215 212 212 216 217 223 220 220 218 216 213
358 350 339 330 323 322 318 314 308 301 297 293 289 288 286 279 247 221 213 215 216 219 222 222 223 220 216 217 214 219 226 223 221 214 218 219 223 222 225 220 219 219
360 355 349 339 330 325 320 315 311 304 298 297 296 290 286 284 268 230 224 220 222 220 220 220 221 223 221 221 221 225 225 223 224 217 219 222 222 224 228 226 228 223
4 3 356 345 338 331 327 321 317 313 309 305 301 298 295 285 262 238 233 226 230 228 225 221 220 221 223 224 223 225 225 227 228 220 223 226 222 222 225 226 231 231
360 360 2 353 345 339 335 334 332 326 319 312 307 301 295 290 266 250 241 235 230 230 229 225 220 222 219 223 221 229 227 230 226 224 229 229 226 221 224 223 227 230
4 2 2 354 348 346 342 343 338 335 329 323 316 315 305 297 284 268 259 241 226 226 228 226 224 222 220 223 225 230 229 229 225 222 230 232 231 224 226 226 229 230
1 3 2 359 351 350 348 348 344 336 334 326 318 309 308 299 288 278 272 264 249 231 222 227 226 225 220 221 224 228 227 229 230 225 229 233 232 230 226 229 232 234
4 3 357 350 349 345 352 353 353 348 340 332 325 317 313 304 297 291 283 273 263 252 241 225 225 229 225 220 222 226 228 225 227 227 230 232 229 234 228 225 228 234
353 356 353 345 345 350 355 357 355 349 346 341 332 324 315 305 301 297 290 286 277 265 252 242 234 230 226 226 228 229 230 228 225 226 228 230 230 230 228 226 228 232
349 345 351 354 359 359 358 355 352 350 347 346 339 333 330 320 306 296 288 281 278 272 263 256 246 236 233 228 230 231 233 232 227 226 229 231 232 232 229 228 229 233
348 351 351 354 357 354 353 349 350 346 343 343 341 336 332 326 318 313 299 286 280 275 268 260 254 247 242 239 233 231 235 235 233 231 232 234 234 234 231 229 232 234
348 348 346 342 339 346 345 343 342 343 339 336 336 332 330 330 326 323 315 303 292 282 274 268 261 252 247 243 237 233 233 235 237 237 238 236 236 237 236 232 235 235
341 345 344 344 343 336 329 327 335 331 332 331 329 324 323 324 324 320 317 314 308 303 293 284 274 267 262 250 245 243 240 240 238 238 240 241 239 237 235 237 237 238
323 323 327 329 333 335 335 332 325 321 316 323 324 323 319 315 314 314 311 309 304 303 300 296 289 282 273 264 256 252 249 246 243 243 244 244 245 242 238 236 236 236
317 317 310 312 325 327 327 330 331 328 323 315 312 312 311 308 306 303 301 301 301 299 300 297 292 285 284 280 274 268 259 256 253 249 248 250 247 246 243 240 238 237
309 306 301 303 307 304 309 313 316 319 319 319 316 309 308 307 304 299 295 294 295 293 291 292 287 281 277 280 275 273 273 270 263 258 256 254 252 251 248 242 237 237
310 303 301 297 295 298 298 295 298 303 307 307 306 301 298 296 291 294 299 295 293 293 295 286 277 276 278 274 274 274 272 270 268 267 260 256 255 253 253 250 246 240
302 302 301 297 292 290 291 290 290 292 291 295 301 303 303 299 290 280 280 280 285 287 283 283 287 282 280 282 282 281 275 267 263 262 262 262 260 257 256 254 252 249
298 297 295 293 291 288 288 288 288 287 288 290 289 289 294 296 296 295 292 289 281 278 283 284 279 275 281 280 276 274 276 273 262 256 255 256 257 259 261 259 258 254
299 298 297 295 292 288 286 284 284 284 283 284 285 286 282 281 285 292 294 292 288 289 286 275 269 277 277 277 275 273 271 267 259 259 256 255 255 254 255 258 258 259
288 286 287 290 291 292 291 288 284 283 280 283 278 276 277 275 276 281 283 288 290 285 281 282 275 267 269 271 274 274 272 270 258 256 256 256 256 256 256 256 257 257
291 290 288 288 290 289 287 289 291 288 286 283 273 272 271 272 271 272 273 275 279 282 279 274 273 265 260 262 269 272 273 269 262 255 254 254 254 253 252 253 256 254
294 292 291 290 290 289 286 287 290 289 285 282 277 274 273 270 269 268 268 270 271 271 273 272 273 269 264 261 263 267 270 264 263 260 256 253 251 250 246 247 246 246
300 301 302 300 297 292 289 286 286 284 281 280 277 280 277 273 273 271 265 264 264 263 259 266 272 272 270 267 264 259 255 257 258 260 258 256 257 249 246 245 241 239
304 304 304 304 301 297 295 292 288 284 281 279 277 275 274 276 272 267 265 261 258 258 259 259 263 267 265 262 261 261 257 245 249 252 257 256 255 256 249 246 246 238
310 308 306 304 300 297 297 293 291 287 282 279 277 275 275 274 272 269 267 265 263 259 258 256 259 261 260 258 253 253 252 246 242 248 250 254 251 253 256 252 251 247